Regional Weather Roundup
Issued by NWS

Home | Current Version | Previous Version | Graphics & Text | Print | Product List | Glossary On
Versions: 1 2 3 4 5 6 7 8 9 10 11 12 13 14 15 16 17 18 19 20 21 22 23 24 25 26 27 28 29 30 31 32 33 34 35 36 37 38 39 40 41 42 43 44 45 46 47 48 49 50
000
ASUS43 KMPX 160601
RWRMN
WEATHER ROUNDUP FOR MINNESOTA
NATIONAL WEATHER SERVICE TWIN CITIES/CHANHASSEN MN
100 AM CDT TUE SEP 16 2014


NOTE: "FAIR" INDICATES FEW OR NO CLOUDS BELOW 12,000 FEET WITH NO
SIGNIFICANT WEATHER AND/OR OBSTRUCTIONS TO VISIBILITY. N/A MEANS
CURRENT SKY AND/OR WEATHER CONDITIONS ARE NOT AVAILABLE.

MNZ060>063-068>070-160700-
   Twin Cities Metro

CITY           SKY/WX    TMP DP  RH WIND       PRES   REMARKS
TWIN CITIES    CLEAR     48  41  76 SW5       30.21F
6HR MIN TEMP:  48; 6HR MAX TEMP:  57;

ST PAUL        CLEAR     45  43  93 CALM      30.22F
CRYSTAL        CLEAR     43  40  89 CALM      30.20S
BLAINE         CLEAR     43  43 100 CALM      30.20F
LAKEVILLE      CLEAR     37  37 100 CALM      30.22S
EDEN PRAIRIE   CLEAR     44  42  93 SW3       30.21S
6HR MIN TEMP:  44; 6HR MAX TEMP:  58;

SOUTH ST PAUL  CLEAR     44  41  89 CALM      30.22S
LAKE ELMO      FAIR      39  37  93 CALM      30.22S
$$
MNZ001>005-007-008-013>017-022>024-027-028-160700-
   Northwest Minnesota

CITY           SKY/WX    TMP DP  RH WIND       PRES   REMARKS
BEMIDJI        CLEAR     46  38  73 SW8       30.10S
HALLOCK        CLEAR     41  37  87 S5        30.02F
ROSEAU         CLEAR     45  39  81 S7        30.03S
WARROAD        PTCLDY    46  41  81 S6        30.02F
THIEF RVR FALL CLEAR     45  39  81 SW8       30.07F
CROOKSTON      CLEAR     46  41  81 S8        30.08F
FOSSTON        CLEAR     43  37  81 S9        30.11S
DETROIT LAKES  CLEAR     50  37  62 SW8       30.14S
MOORHEAD       CLEAR     48  43  81 SW8       30.14S
PARK RAPIDS    CLEAR     44  39  82 SW7       30.13F
MAHNOMEN       FAIR      42  37  84 S8        30.11F
$$
MNZ006-009>011-018-025>026-160700-
   North Central Minnesota

CITY           SKY/WX    TMP DP  RH WIND       PRES   REMARKS
BAUDETTE       CLEAR     45  39  79 SW6       30.02F
FLAG ISLAND    MOCLDY    52  41  66 SW10      29.98S
INTL FALLS     CLEAR     39  36  89 CALM      30.03F
6HR MIN TEMP:  36; 6HR MAX TEMP:  53;

WASKISH        CLEAR     48  43  81 CALM      30.06S
BIG FORK       CLEAR     39  37  93 SW6       30.09F
LONGVILLE      CLEAR     48  39  71 SW7       30.13S
GRAND RAPIDS   CLEAR     46  36  66 SW7       30.12S
CRANE LAKE     PTCLDY    37  36  93 S3        30.08F
ORR            PTCLDY    43  36  75 S3        30.05F
COOK           PTCLDY    45  36  70 SW7       30.09F
WALKER         FAIR      47  37  68 SW6       30.12S
$$
MNZ012-019>021-037-160700-
   Northeast Minnesota

CITY           SKY/WX    TMP DP  RH WIND       PRES   REMARKS
DULUTH         CLEAR     45  35  68 SW10      30.13F
6HR MIN TEMP:  42; 6HR MAX TEMP:  53;

ELY            MOCLDY    43  36  75 CALM      30.09S
HIBBING        CLEAR     33  31  92 CALM      30.11F
EVELETH        PTCLDY    43  36  75 SW5       30.12S
DULUTH HARBOR  CLEAR     45  39  81 SW10      30.14F
TWO HARBORS    PTCLDY    43  34  70 W6        30.11S
SILVER BAY     MOCLDY    34  34 100 CALM      30.10S
GRAND MARAIS     N/A     49  37  63 NW7       30.07S
G MARAIS ARPRT PTCLDY    39  34  81 W5        30.08F
$$
MNZ029>031-032-039>041-046>048-054>057-064-160700-
   West Central Minnesota

CITY           SKY/WX    TMP DP  RH WIND       PRES   REMARKS
FERGUS FALLS   CLEAR     45  34  65 S8        30.18S
WHEATON        CLEAR     43  36  75 S7        30.20S
MORRIS         CLEAR     41  36  81 S6        30.19S
ALEXANDRIA     CLEAR     45  38  76 SW9       30.20S
ELBOW LAKE     FAIR      40  36  85 S7        30.18S
WADENA         CLEAR     43  36  75 SW6       30.15F
GLENWOOD       CLEAR     43  37  81 SW3       30.20S
APPLETON       CLEAR     41  37  87 CALM      30.20F
BENSON         CLEAR     37  36  93 SW3       30.20F
ORTONVILLE     CLEAR     45  36  70 S3        30.20S
MADISON        CLEAR     43  39  87 SW6       30.21S
WILLMAR        FAIR      41  37  87 CALM      30.22F
$$
MNZ033>034-036-042>043-049>051-058-059-160700-
   Central Minnesota

CITY           SKY/WX    TMP DP  RH WIND       PRES   REMARKS
ST CLOUD       CLEAR     43  39  86 CALM      30.19F
6HR MIN TEMP:  42; 6HR MAX TEMP:  59;

SAUK CENTRE    FAIR      39  35  84 S3        30.20S
PAYNESVILLE    CLEAR     36  36 100 CALM      30.21S
AITKIN         CLEAR     41  36  81 CALM      30.14S
PINE RIVER     CLEAR     43  36  75 SW3       30.17F
BRAINERD       CLEAR     40  36  86 S6        30.16F
STAPLES        CLEAR     43  36  75 S6        30.16F
LONG PRAIRIE   FAIR      37  36  93 S3        30.19S
LITTLE FALLS   CLEAR     39  37  93 CALM      30.18F
LITCHFIELD     CLEAR     45  43  93 CALM      30.22S
BUFFALO        CLEAR     41  38  90 CALM      30.22S
MAPLE LAKE     CLEAR     40  40  98 CALM      30.22S FOG
$$
MNZ037-044-045-052-053-160700-
   East Central Minnesota

CITY           SKY/WX    TMP DP  RH WIND       PRES   REMARKS
PRINCETON      CLEAR     39  37  93 CALM      30.19F
MORA           CLEAR     36  36 100 CALM      30.19F
CAMBRIDGE      CLEAR     43  36  75 CALM      30.18S
RUSH CITY      CLEAR     37  36  96 CALM      30.19F
MOOSE LAKE     CLEAR     34  34 100 SW3       30.14F
HINCKLEY       FAIR      36  36 100 CALM      30.17F
CLOQUET        CLEAR     43  36  75 SW6       30.14F
MCGREGOR       CLEAR     41  37  87 S3        30.15F
$$
MNZ071>073-080-081-089-090-097-098-160700-
   Southwest Minnesota

CITY           SKY/WX    TMP DP  RH WIND       PRES   REMARKS
MONTEVIDEO     CLEAR     43  36  75 SW6       30.22F
GRANITE FALLS  CLEAR     39  37  91 CALM      30.23F
CANBY          CLEAR     47  39  71 SW6       30.22F
MARSHALL       CLEAR     43  36  75 SW9       30.22S
REDWOOD FALLS  CLEAR     43  37  79 SW5       30.23S
OLIVIA         CLEAR     41  36  81 SW6       30.21S
PIPESTONE      CLEAR     45  37  76 CALM      30.23F
WINDOM         CLEAR     41  39  93 CALM      30.24F
WORTHINGTON    CLEAR     41  39  93 SW5       30.25S
JACKSON        CLEAR     41  37  87 CALM      30.25S
TRACY          CLEAR     46  41  84 CALM      30.24S
SLAYTON        CLEAR     42  38  86 CALM      30.25S
$$
MNZ065>067-074>077-082>085-091>093-160700-
   South Central Minnesota

CITY           SKY/WX    TMP DP  RH WIND       PRES   REMARKS
MANKATO        CLEAR     45  37  76 S3        30.23S
NEW ULM        CLEAR     41  41 100 SW3       30.23S
ST JAMES       CLEAR     43  39  87 SW5       30.24S
FAIRMONT       CLEAR     41  36  81 CALM      30.24S
GLENCOE        CLEAR     41  38  87 CALM      30.21S
FARIBAULT      CLEAR     41  37  87 CALM      30.23S
OWATONNA       CLEAR     39  37  93 CALM      30.23S
WASECA         CLEAR     37  34  87 CALM      30.25S
ALBERT LEA       N/A     41  41 100 CALM      30.23F FOG
$$
MNZ078>079-086>088-094>096-160700-
   Southeast Minnesota

CITY           SKY/WX    TMP DP  RH WIND       PRES   REMARKS
ROCHESTER      CLEAR     43  38  82 W6        30.23S
6HR MIN TEMP:  43; 6HR MAX TEMP:  52;

RED WING       CLEAR     39  39 100 CALM      30.21F
STANTON        CLEAR     40  38  91 S3        30.21S
DODGE CENTER   CLEAR     39  37  93 SW5       30.23R
WINONA         CLEAR     43  41  93 CALM      30.23S
AUSTIN         CLEAR     39  39 100 CALM      30.23S FOG
PRESTON        CLEAR     44  43  97 CALM      30.23S
$$
ABBREVIATIONS USED IN REMARKS
   TC - TEMPERATURES IN CELSIUS
  WCI - WIND CHILL INDEX
   HX - HEAT INDEX
  VSB - VISIBILITY
$$


USA.gov is the U.S. government's official web portal to all federal, state and local government web resources and services.